Weather in Koptyaki

Russia / Sverdlovsk Oblast     59°17′14″N   60°22′24″E
temp.,
°C
wind,
m/s
gust,
m/s
humid.,
%
clouds,
%
prec.,
mm/h
press.,
hPa
HPBL,
m
4 december, sat
sat423:00−6wsw39815 0.0 1006391
02:00−7wsw411755 0.0 1009632
05:00−7wsw4127813 0.0 1012555
08:00−6sw4108199 0.0 1012340
11:00−5ssw2786100 0.0 1012237
14:00−4se3896100 1.4 1009307
17:00−1se31098100 3.3 1005574
20:00−3wnw4798100 2.4 1004409
5 december, sun
sun523:00−9nnw3596100 6.4 1005182
02:00−10n3694100 2.4 1007236
05:00−12n3694100 2.9 1009244
08:00−14n2595100 0.1 1011226
11:00−15nne3493100 0.5 1012257
14:00−15nne3489100 0.1 1013301
17:00−17nne259768 0.1 1015180
20:00−17n2395100 0.2 1016201
6 december, mon
mon623:00−17n2396100 0.6 1017213
02:00−17nnw249698 0.2 1019239
05:00−21nw2310028 0.3 102042
08:00−23wnw111005 0.0 102214
11:00−21w12955 0.0 102351
14:00−17wsw13875 0.0 1022135
17:00−21wsw21985 0.0 102320
20:00−21w25945 0.0 102475
7 december, tue
tue723:00−21w25945 0.0 102577
02:00−19wsw37935 0.0 1025109
05:00−21w22975 0.0 102625
08:00−22w22965 0.0 102721
11:00−19w11905 0.0 102936
14:00−14nnw11820 0.0 103035
17:00−21w11945 0.0 10329
20:00−22w21955 0.0 103316
8 december, wed
wed823:00−22w21955 0.0 103527
02:00−23w21965 0.0 103619
05:00−21w1196100 0.0 103623
08:00−19sw1192100 0.0 103531
11:00−17s1389100 0.0 103577
14:00−13s2686100 0.0 1033195
17:00−11sse2883100 0.0 1031240
20:00−9sse31295100 1.5 1027397